AAL2930 KPHX-KLAX

Flight info

Callsign AAL2930
Flight time N/A
Altitude 26000
Route KEENS3 WLVRN ESTWD HLYWD1
Aircraft A321/M-SDE3FGHIRWY/LB1

Departure

Time 2026-05-04 01:56
Airport Phoenix Sky Harbor International Airport (KPHX)

Arrival

Time N/A
Airport Los Angeles International Airport (KLAX)
Time Latitude Longitude Altitude Speed Heading
2026-05-04 01:30 33.43787 -111.99862 1150 ft 0 kts 270°
2026-05-04 01:45 33.43785 -111.99836 1150 ft 4 kts 298°
2026-05-04 01:45 33.43768 -111.99818 1150 ft 4 kts 352°
2026-05-04 01:45 33.43760 -111.99817 1150 ft 0 kts 360°
2026-05-04 01:49 33.43769 -111.99817 1150 ft 3 kts 360°
2026-05-04 01:50 33.43813 -111.99817 1150 ft 10 kts 359°
2026-05-04 01:50 33.43882 -111.99810 1150 ft 5 kts 35°
2026-05-04 01:50 33.43900 -111.99749 1150 ft 12 kts 86°
2026-05-04 01:50 33.43899 -111.99615 1150 ft 18 kts 88°
2026-05-04 01:51 33.43901 -111.99451 1150 ft 21 kts 89°
2026-05-04 01:51 33.43899 -111.99318 1150 ft 13 kts 91°
2026-05-04 01:51 33.43850 -111.99241 1150 ft 14 kts 174°
2026-05-04 01:51 33.43742 -111.99242 1150 ft 17 kts 181°
2026-05-04 01:52 33.43615 -111.99240 1150 ft 19 kts 179°
2026-05-04 01:52 33.43470 -111.99240 1150 ft 22 kts 181°
2026-05-04 01:52 33.43344 -111.99241 1150 ft 14 kts 180°
2026-05-04 01:52 33.43264 -111.99242 1150 ft 7 kts 181°
2026-05-04 01:53 33.43234 -111.99244 1150 ft 1 kts 187°
2026-05-04 01:53 33.43212 -111.99261 1150 ft 8 kts 220°
2026-05-04 01:53 33.43203 -111.99271 1150 ft 1 kts 221°
2026-05-04 01:53 33.43172 -111.99304 1150 ft 11 kts 223°
2026-05-04 01:54 33.43115 -111.99369 1150 ft 5 kts 226°
2026-05-04 01:54 33.43106 -111.99396 1150 ft 0 kts 262°
2026-05-04 01:54 33.43105 -111.99398 1150 ft 0 kts 262°
2026-05-04 01:55 33.43105 -111.99400 1150 ft 2 kts 262°
2026-05-04 01:55 33.43101 -111.99569 1150 ft 57 kts 269°
2026-05-04 01:55 33.43103 -112.00377 1150 ft 134 kts 270°
2026-05-04 01:55 33.43110 -112.01657 1541 ft 162 kts 271°
2026-05-04 01:56 33.43146 -112.03034 2404 ft 168 kts 272°
2026-05-04 01:56 33.43211 -112.04458 2955 ft 176 kts 272°
2026-05-04 01:56 33.43198 -112.05987 3223 ft 194 kts 260°
2026-05-04 01:56 33.42789 -112.07594 3494 ft 210 kts 245°
2026-05-04 01:57 33.42207 -112.09297 3849 ft 227 kts 244°
2026-05-04 01:57 33.41620 -112.11105 4276 ft 242 kts 246°
2026-05-04 01:57 33.41012 -112.13152 4721 ft 257 kts 247°
2026-05-04 01:57 33.40424 -112.15147 5298 ft 263 kts 246°
2026-05-04 01:58 33.39917 -112.16819 5863 ft 265 kts 246°
2026-05-04 01:58 33.39684 -112.17578 6123 ft 266 kts 246°
2026-05-04 01:58 33.39127 -112.20617 7083 ft 277 kts 268°
2026-05-04 01:58 33.39592 -112.22917 7860 ft 283 kts 284°
2026-05-04 01:59 33.40090 -112.25224 8467 ft 284 kts 274°
2026-05-04 01:59 33.40273 -112.26862 8889 ft 286 kts 272°
2026-05-04 01:59 33.40515 -112.29245 9560 ft 287 kts 272°
2026-05-04 01:59 33.40795 -112.31604 10179 ft 292 kts 274°
2026-05-04 02:00 33.41130 -112.34004 10637 ft 303 kts 276°
2026-05-04 02:00 33.41519 -112.36564 10877 ft 322 kts 276°
2026-05-04 02:00 33.41943 -112.39323 11063 ft 342 kts 276°
2026-05-04 02:00 33.42379 -112.42230 11333 ft 357 kts 276°
2026-05-04 02:01 33.42822 -112.45218 11873 ft 363 kts 276°
2026-05-04 02:01 33.43312 -112.48549 12645 ft 365 kts 276°
2026-05-04 02:01 33.43753 -112.51570 13355 ft 366 kts 276°
2026-05-04 02:01 33.44072 -112.53765 13863 ft 367 kts 276°
2026-05-04 02:02 33.44660 -112.57752 14770 ft 368 kts 277°
2026-05-04 02:02 33.45021 -112.60875 15456 ft 367 kts 271°
2026-05-04 02:02 33.45096 -112.62865 15896 ft 367 kts 269°
2026-05-04 02:02 33.45148 -112.66989 16751 ft 368 kts 268°
2026-05-04 02:03 33.45157 -112.70076 17376 ft 369 kts 268°
2026-05-04 02:03 33.45175 -112.73218 18009 ft 369 kts 268°
2026-05-04 02:03 33.45210 -112.76246 18599 ft 370 kts 268°
2026-05-04 02:03 33.45260 -112.78334 18984 ft 372 kts 271°
2026-05-04 02:04 33.45724 -112.81399 19520 ft 378 kts 283°
2026-05-04 02:04 33.46678 -112.84398 20089 ft 382 kts 288°
2026-05-04 02:04 33.47748 -112.87320 20614 ft 384 kts 289°
2026-05-04 02:04 33.48870 -112.90305 21134 ft 385 kts 289°
2026-05-04 02:05 33.50000 -112.93400 21728 ft 384 kts 288°
2026-05-04 02:05 33.51007 -112.96270 22462 ft 377 kts 288°
2026-05-04 02:05 33.51676 -112.98209 22915 ft 375 kts 287°
2026-05-04 02:05 33.53023 -113.02135 23702 ft 372 kts 287°
2026-05-04 02:06 33.54032 -113.05033 24352 ft 368 kts 287°
2026-05-04 02:06 33.55002 -113.07805 24945 ft 365 kts 287°
2026-05-04 02:06 33.56008 -113.10685 25551 ft 361 kts 287°
2026-05-04 02:06 33.56949 -113.13388 25825 ft 364 kts 287°
2026-05-04 02:07 33.57936 -113.16238 25809 ft 367 kts 287°
2026-05-04 02:07 33.58919 -113.19077 25802 ft 368 kts 287°
2026-05-04 02:07 33.59915 -113.21947 25800 ft 368 kts 287°
2026-05-04 02:07 33.60905 -113.24796 25800 ft 368 kts 287°
2026-05-04 02:08 33.61885 -113.27620 25800 ft 368 kts 287°
2026-05-04 02:08 33.62868 -113.30459 25799 ft 369 kts 287°
2026-05-04 02:08 33.63862 -113.33335 25798 ft 369 kts 287°
2026-05-04 02:08 33.64877 -113.36280 25797 ft 369 kts 287°
2026-05-04 02:09 33.65934 -113.39349 25795 ft 368 kts 287°
2026-05-04 02:09 33.66894 -113.42135 25790 ft 368 kts 287°
2026-05-04 02:09 33.67890 -113.45017 25795 ft 368 kts 287°
2026-05-04 02:09 33.68870 -113.47859 25788 ft 368 kts 287°
2026-05-04 02:10 33.69849 -113.50704 25769 ft 369 kts 287°
2026-05-04 02:10 33.70840 -113.53590 25749 ft 369 kts 287°
2026-05-04 02:10 33.71820 -113.56451 25752 ft 369 kts 287°
2026-05-04 02:10 33.72478 -113.58370 25749 ft 369 kts 286°
2026-05-04 02:11 33.73458 -113.61229 25744 ft 370 kts 286°
2026-05-04 02:11 33.74754 -113.65011 25741 ft 371 kts 286°
2026-05-04 02:11 33.75416 -113.66943 25745 ft 371 kts 286°
2026-05-04 02:11 33.76412 -113.69857 25749 ft 371 kts 286°
2026-05-04 02:12 33.77391 -113.72725 25774 ft 371 kts 286°
2026-05-04 02:12 33.78372 -113.75599 25802 ft 371 kts 286°
2026-05-04 02:12 33.79375 -113.78539 25822 ft 370 kts 286°
2026-05-04 02:12 33.80340 -113.81376 25806 ft 371 kts 286°
2026-05-04 02:13 33.81313 -113.84240 25784 ft 371 kts 286°
2026-05-04 02:13 33.82332 -113.87231 25760 ft 371 kts 286°
2026-05-04 02:13 33.83277 -113.90002 25739 ft 371 kts 286°
2026-05-04 02:13 33.84255 -113.92877 25717 ft 372 kts 286°
2026-05-04 02:14 33.85231 -113.95756 25708 ft 372 kts 286°
2026-05-04 02:14 33.86271 -113.98824 25707 ft 372 kts 286°
2026-05-04 02:14 33.87200 -114.01567 25705 ft 373 kts 286°
2026-05-04 02:14 33.88178 -114.04456 25700 ft 373 kts 286°
2026-05-04 02:15 33.89159 -114.07361 25701 ft 374 kts 286°
2026-05-04 02:15 33.90139 -114.10290 25705 ft 373 kts 285°
2026-05-04 02:15 33.90879 -114.13310 25733 ft 368 kts 278°
2026-05-04 02:15 33.91417 -114.16317 25764 ft 367 kts 277°
2026-05-04 02:16 33.91902 -114.19330 25786 ft 367 kts 276°
2026-05-04 02:16 33.92388 -114.22376 25784 ft 367 kts 276°
2026-05-04 02:16 33.92890 -114.25427 25781 ft 368 kts 277°
2026-05-04 02:16 33.93407 -114.28465 25779 ft 368 kts 277°
2026-05-04 02:17 33.93927 -114.31481 25760 ft 368 kts 277°
2026-05-04 02:17 33.94447 -114.34520 25738 ft 368 kts 277°
2026-05-04 02:17 33.94962 -114.37566 25715 ft 368 kts 277°
2026-05-04 02:17 33.95469 -114.40591 25693 ft 369 kts 277°
2026-05-04 02:18 33.95979 -114.43633 25676 ft 369 kts 277°
2026-05-04 02:18 33.96485 -114.46656 25689 ft 369 kts 277°
2026-05-04 02:18 33.96999 -114.49721 25686 ft 369 kts 277°
2026-05-04 02:18 33.97505 -114.52740 25696 ft 369 kts 277°
2026-05-04 02:19 33.98014 -114.55781 25705 ft 369 kts 277°
2026-05-04 02:19 33.98527 -114.58856 25707 ft 369 kts 277°
2026-05-04 02:19 33.99036 -114.61918 25712 ft 369 kts 277°
2026-05-04 02:19 33.99540 -114.64951 25717 ft 369 kts 277°
2026-05-04 02:20 34.00044 -114.67987 25721 ft 369 kts 277°
2026-05-04 02:20 34.00548 -114.71011 25728 ft 368 kts 276°
2026-05-04 02:20 34.01047 -114.74030 25743 ft 368 kts 276°
2026-05-04 02:20 34.01547 -114.77061 25733 ft 368 kts 276°
2026-05-04 02:21 34.02047 -114.80094 25725 ft 368 kts 276°
2026-05-04 02:21 34.02545 -114.83121 25725 ft 368 kts 276°
2026-05-04 02:21 34.03051 -114.86198 25725 ft 368 kts 276°
2026-05-04 02:21 34.03544 -114.89201 25721 ft 368 kts 276°
2026-05-04 02:22 34.04058 -114.92326 25718 ft 368 kts 276°
2026-05-04 02:22 34.04562 -114.95408 25715 ft 368 kts 276°
2026-05-04 02:22 34.04887 -114.97403 25713 ft 368 kts 276°
2026-05-04 02:22 34.05548 -115.01453 25708 ft 368 kts 276°
2026-05-04 02:23 34.06045 -115.04493 25707 ft 368 kts 276°
2026-05-04 02:23 34.06382 -115.06568 25707 ft 368 kts 276°
2026-05-04 02:23 34.06868 -115.09564 25727 ft 368 kts 276°
2026-05-04 02:23 34.07360 -115.12589 25752 ft 367 kts 276°
2026-05-04 02:24 34.07851 -115.15602 25777 ft 366 kts 276°
2026-05-04 02:24 34.08340 -115.18619 25789 ft 366 kts 276°
2026-05-04 02:24 34.08827 -115.21626 25811 ft 365 kts 276°
2026-05-04 02:24 34.09313 -115.24635 25804 ft 365 kts 276°
2026-05-04 02:25 34.09798 -115.27640 25795 ft 365 kts 276°
2026-05-04 02:25 34.10281 -115.30641 25776 ft 365 kts 276°
2026-05-04 02:25 34.10762 -115.33647 25753 ft 365 kts 276°
2026-05-04 02:25 34.11253 -115.36702 25731 ft 365 kts 276°
2026-05-04 02:26 34.11742 -115.39749 25737 ft 365 kts 276°
2026-05-04 02:26 34.12225 -115.42762 25741 ft 365 kts 276°
2026-05-04 02:26 34.12704 -115.45764 25742 ft 365 kts 276°
2026-05-04 02:26 34.13183 -115.48772 25744 ft 365 kts 276°
2026-05-04 02:27 34.13662 -115.51785 25746 ft 365 kts 276°
2026-05-04 02:27 34.14141 -115.54797 25755 ft 365 kts 276°
2026-05-04 02:27 34.14629 -115.57872 25760 ft 365 kts 276°
2026-05-04 02:27 34.15105 -115.60875 25766 ft 365 kts 276°
2026-05-04 02:28 34.15586 -115.63917 25770 ft 365 kts 276°
2026-05-04 02:28 34.16059 -115.67006 25775 ft 364 kts 275°
2026-05-04 02:28 34.16255 -115.70128 25793 ft 360 kts 266°
2026-05-04 02:28 34.16061 -115.73185 25820 ft 358 kts 262°
2026-05-04 02:29 34.15753 -115.76143 25816 ft 358 kts 261°
2026-05-04 02:29 34.15415 -115.79120 25797 ft 359 kts 261°
2026-05-04 02:29 34.15088 -115.82132 25787 ft 359 kts 261°
2026-05-04 02:29 34.14784 -115.85245 25791 ft 360 kts 262°
2026-05-04 02:30 34.14513 -115.88191 25802 ft 360 kts 262°
2026-05-04 02:30 34.14225 -115.91264 25812 ft 360 kts 262°
2026-05-04 02:30 34.13934 -115.94284 25820 ft 360 kts 262°
2026-05-04 02:30 34.13633 -115.97336 25824 ft 360 kts 261°
2026-05-04 02:31 34.13332 -116.00359 25828 ft 360 kts 261°
2026-05-04 02:31 34.13035 -116.03378 25833 ft 360 kts 261°
2026-05-04 02:31 34.12739 -116.06413 25841 ft 359 kts 262°
2026-05-04 02:31 34.12446 -116.09427 25865 ft 359 kts 262°
2026-05-04 02:32 34.12156 -116.12384 25870 ft 358 kts 261°
2026-05-04 02:32 34.11859 -116.15395 25852 ft 358 kts 261°
2026-05-04 02:32 34.11560 -116.18419 25830 ft 358 kts 261°
2026-05-04 02:32 34.11363 -116.20397 25820 ft 357 kts 261°
2026-05-04 02:33 34.11063 -116.23415 25820 ft 356 kts 261°
2026-05-04 02:33 34.10767 -116.26387 25819 ft 355 kts 261°
2026-05-04 02:33 34.10469 -116.29336 25818 ft 352 kts 261°
2026-05-04 02:33 34.10171 -116.32259 25819 ft 351 kts 261°
2026-05-04 02:34 34.09850 -116.35284 25844 ft 356 kts 261°
2026-05-04 02:34 34.09527 -116.38263 25854 ft 358 kts 261°
2026-05-04 02:34 34.09205 -116.41240 25858 ft 358 kts 261°
2026-05-04 02:34 34.08881 -116.44259 25862 ft 358 kts 261°
2026-05-04 02:35 34.08564 -116.47213 25866 ft 358 kts 261°
2026-05-04 02:35 34.08241 -116.50217 25869 ft 358 kts 261°
2026-05-04 02:35 34.07915 -116.53230 25880 ft 358 kts 261°
2026-05-04 02:35 34.07590 -116.56243 25892 ft 358 kts 261°
2026-05-04 02:36 34.07275 -116.59223 25903 ft 358 kts 261°
2026-05-04 02:36 34.06995 -116.62199 25919 ft 357 kts 262°
2026-05-04 02:36 34.06720 -116.65169 25942 ft 356 kts 262°
2026-05-04 02:36 34.06441 -116.68208 25947 ft 356 kts 262°
2026-05-04 02:37 34.06170 -116.71153 25932 ft 355 kts 262°
2026-05-04 02:37 34.05889 -116.74161 25910 ft 355 kts 261°
2026-05-04 02:37 34.05611 -116.77140 25919 ft 353 kts 261°
2026-05-04 02:37 34.05331 -116.80114 25925 ft 351 kts 261°
2026-05-04 02:38 34.05058 -116.82999 25930 ft 349 kts 261°
2026-05-04 02:38 34.04782 -116.85935 25936 ft 347 kts 261°
2026-05-04 02:38 34.04691 -116.86890 25946 ft 349 kts 261°
2026-05-04 02:38 34.04494 -116.88938 25885 ft 346 kts 261°
2026-05-04 02:39 34.04197 -116.91447 25661 ft 337 kts 259°
2026-05-04 02:39 34.03840 -116.94220 25206 ft 331 kts 259°
2026-05-04 02:39 34.03544 -116.96406 24627 ft 332 kts 259°
2026-05-04 02:39 34.03163 -116.99212 23733 ft 338 kts 258°
2026-05-04 02:40 34.02782 -117.02057 22832 ft 343 kts 258°
2026-05-04 02:40 34.02412 -117.04940 22150 ft 343 kts 259°
2026-05-04 02:40 34.02087 -117.07731 21621 ft 338 kts 260°
2026-05-04 02:40 34.01770 -117.10552 21053 ft 334 kts 260°
2026-05-04 02:41 34.01455 -117.13321 20512 ft 330 kts 259°
2026-05-04 02:41 34.01129 -117.16063 19990 ft 326 kts 259°
2026-05-04 02:41 34.00804 -117.18735 19531 ft 320 kts 259°
2026-05-04 02:41 34.00487 -117.21399 19063 ft 314 kts 259°
2026-05-04 02:42 34.00182 -117.23969 18594 ft 309 kts 259°
2026-05-04 02:42 33.99876 -117.26537 18116 ft 305 kts 259°
2026-05-04 02:42 33.99574 -117.29058 17656 ft 300 kts 259°
2026-05-04 02:42 33.99272 -117.31551 17206 ft 296 kts 259°
2026-05-04 02:43 33.98979 -117.33996 16762 ft 295 kts 259°
2026-05-04 02:43 33.98688 -117.36490 16284 ft 294 kts 259°
2026-05-04 02:43 33.98503 -117.38078 15990 ft 293 kts 259°
2026-05-04 02:43 33.98175 -117.40882 15364 ft 294 kts 259°